Regional Weather Roundup
Issued by NWS New Orleans/Baton Rouge, LA

Home | Current Version | Previous Version | Text Only | Print | Product List | Glossary On
Versions: 1 2 3 4 5 6 7 8 9 10 11 12 13 14 15 16 17 18 19 20 21 22 23 24 25 26 27 28 29 30 31 32 33 34 35 36 37 38 39 40 41 42 43 44 45 46 47 48 49 50
828
ASUS44 KLIX 032110
RWRLIX
NEW ORLEANS REGIONAL WEATHER ROUNDUP
NATIONAL WEATHER SERVICE NEW ORLEANS LA
300 PM CST TUE MAR 03 2015

NOTE: "FAIR" INDICATES FEW OR NO CLOUDS BELOW 12,000 FEET WITH NO
      SIGNIFICANT WEATHER AND/OR OBSTRUCTIONS TO VISIBILITY.
      SKY/WX - SKY CONDITION AND SIGNIFICANT WEATHER.
      TMP - AIR TEMPERATURE.     DP    - DEWPOINT TEMPERATURE.
      RH  - RELATIVE HUMIDITY.   PRES  - PRESSURE.
      HI  - HEAT INDEX.          WCI   - WIND CHILL INDEX.

*  THESE STATIONS ARE NOT NWS OR FAA STATIONS AND ARE NOT UNDER
   NWS QUALITY CONTROL.

LAZ038-040-048-061>063-065>067-069-032200-
SOUTHEAST LOUISIANA

CITY           SKY/WX    TMP DP  RH WIND       PRES   REMARKS
N.O. AUDUBON   NOT AVBL
N.O. INTL ARPT CLOUDY    78  66  66 S18G28    30.02F
N.O. LAKEFRONT CLOUDY    79  67  66 SE14      30.02F
SLIDELL        CLOUDY    76  68  76 SE12G22   30.02F
BATON ROUGE    PTSUNNY   78  69  73 S15       29.98F
BOOTHVILLE     SUNNY     77  67  71 SE17G24   30.05F
BELLE CHASSE   PTSUNNY   77  64  64 S20G26    30.02F
BOGALUSA*        N/A     77  65  66 S14G20    30.03F
GALLIANO*      CLOUDY    78  67  66 MISG      30.03F
NEW ROADS*     MOCLDY    79  66  64 S14G21    29.97F
GONZALES*      LGT RAIN  74  74 100 SW7       29.99F
HAMMOND*       NOT AVBL
HOUMA*         PTSUNNY   77  70  78 SE16      30.02F
PORT FOURCHON*   N/A     75  68  78 SE13      30.06F

$$

MSZ070-080>082-032200-
SOUTHERN MISSISSIPPI

CITY           SKY/WX    TMP DP  RH WIND       PRES   REMARKS
MCCOMB         CLOUDY    72  68  87 W5        29.99F
GULFPORT       PTSUNNY   71  65  81 SE16      30.06F
BILOXI         SUNNY     73  67  81 SE12      30.06F
PASCAGOULA     CLOUDY    71  65  81 SE12      30.08F
STENNIS ARPT*  CLOUDY    72  63  73 SE15      30.06F

$$

COASTAL OBSERVATIONS
LAKE AND NEARSHORE STATIONS

STATION/POSITION TIME  TEMP    WIND        PRES    WAVE
                       AIR SEA DIR/SP/G            HT/PER
                 (UTC) (F)     (DEG/KT/KT) (MB)    (FT/S)
PASCAGOULA       2100   71     120/  4/ 10 1018.2
WAVELAND YACHT   2100   66 57  140/ 14/ 17 1017.6
GRAND ISLE       2100   71 64  140/  5/  9 1017.9
SOUTHWEST PASS   2100   78 47  140/  8/ 10 1017.9
NEW CANAL        2100   77     180/ 10/ 18 1017.0
SHELL BEACH      2100   72 62  130/ 16/ 20 1017.3

OFFSHORE STATIONS

STATION/POSITION TIME  TEMP    WIND        PRES    WAVE
                       AIR SEA DIR/SP/G            HT/PER
                 (UTC) (F)     (DEG/KT/KT) (MB)    (FT/S)
64 S DAUPHIN ISL 2015   71 72  140/ 14/ 16 1018.8    3/ 8

$$




USA.gov is the U.S. government's official web portal to all federal, state and local government web resources and services.